Home > Weather > Sharjah > Past weeks

Flag for United Arab Emirates Past Weather in Sharjah, Sharjah, United Arab Emirates — Yesterday and Last 2 Weeks

Now
102 °F

Clear.


Feels Like: 133 °F
Forecast: 90 / 105 °F
Wind: 12 mph from North

Location: Sharjah International Airport

Current Time: Jun 28, 2016 at 1:41:38 PM

Latest Report: Jun 28, 2016 at 1:00 PM


Visibility: 5 mi

Pressure: 29.45 "Hg

Humidity: 57%

Dew Point: 84 °F

Location of SharjahLocation

Past Weather in Sharjah — Graph

°F

Sharjah Temperature Yesterday

Maximum temperature yesterday: 106 °F (at 11:00 AM)
Minimum temperature yesterday: 82 °F (at 5:00 AM)
Average temperature yesterday: 94 °F

High & Low Weather Summary for the Past Weeks

 TemperatureHumidityPressure
High113 °F (Jun 22, 11:00 AM)84% (Jun 15, 6:00 AM)29.65 "Hg (Jun 15, 6:00 AM)
Low77 °F (Jun 22, 3:00 AM)11% (Jun 16, 12:00 PM)29.39 "Hg (Jun 27, 3:00 PM)
Average94 °F45%29.51 "Hg
* Reported Jun 13 12:00 PM — Jun 28 12:00 PM, Sharjah, Weather by CustomWeather, © 2016

Note: Actual official high and low records may vary slightly from our data, if they occured in-between our weather recording intervals... More about our weather records

Advertising

Sharjah Weather History for the Previous 24 Hours

Scroll right to see more
 ConditionsComfort  
Time TempWeatherWind HumidityBarometerVisibility
12:00 PM
Tue, Jun 28
106 °FClear.12 mph45%29.45 "Hg5 mi
11:00 AM111 °FSunny.15 mph20%29.45 "Hg10 mi
10:00 AM108 °FSunny.15 mph25%29.47 "Hg10 mi
9:00 AM100 °FClear.15 mph40%29.45 "Hg5 mi
8:00 AM93 °FSunny.6 mph39%29.45 "Hg10 mi
7:00 AM84 °FSunny.1 mph58%29.45 "Hg10 mi
6:00 AM86 °FSunny.5 mph55%29.45 "Hg10 mi
5:00 AM84 °FClear.3 mph58%29.42 "Hg10 mi
4:00 AM82 °FClear.5 mph62%29.42 "Hg10 mi
3:00 AM82 °FClear.3 mph62%29.39 "Hg10 mi
2:00 AM84 °FClear.3 mph62%29.39 "Hg10 mi
1:00 AM90 °FClear.1 mph52%29.42 "Hg10 mi
12:00 AM90 °FClear.2 mph49%29.42 "Hg10 mi
11:00 PM
Mon, Jun 27
93 °FClear.3 mph44%29.45 "Hg10 mi
10:00 PM93 °FClear.5 mph47%29.45 "Hg10 mi
9:00 PM90 °FClear.6 mph52%29.42 "Hg10 mi
8:00 PM95 °FClear.2 mph39%29.39 "Hg10 mi
7:00 PM95 °FSunny.9 mph47%29.42 "Hg10 mi
6:00 PM97 °FSunny.12 mph47%29.39 "Hg10 mi
5:00 PM99 °FSunny.13 mph44%29.39 "Hg10 mi
4:00 PM100 °FSunny.14 mph40%29.39 "Hg10 mi
3:00 PM102 °FSunny.16 mph35%29.39 "Hg10 mi
2:00 PM104 °FSunny.14 mph33%29.42 "Hg10 mi
1:00 PM106 °FSunny.9 mph32%29.45 "Hg10 mi
Weather by CustomWeather, © 2016

See weather overviewHow to use our weather pages